Retour au catalogue

FENGYUN 1C DEB

ActifSSO
NORAD 31224·DEBRIS·🇨🇳 China

Lancé May 10, 1999 depuis Taiyuan Satellite Launch Center

Loading…

Prochains Passages (prochaines 24 heures)

TLE

FraisSource: Space-Track

Époque: Sep 13, 2026, 04:43 UTC

1 31224U 99025BLE 26256.19665602  .00000709  00000-0  25744-3 0  9994
2 31224  98.3913 242.7144 0158096  72.6219 349.3911 14.29457571731711

Suivez FENGYUN 1C DEB en temps réel avec AllMySat

Download on the App Store